Location: Im Fang
(46.6019°N, 7.2397°E)
Time: 00:12:09
(UTC+00:00)

Cosmos 1340 - Pass Details

Date: 08 December 2019
Orbit: 502 x 506 km, 81.2° (Epoch: 24 January)

Event Time Altitude Azimuth Distance (km) Brightness Sun altitude
Rises 05:19:17 0° 181° (S) 2,585 6.4 -16.8°
Reaches altitude 10° 05:21:24 10° 178° (S) 1,707 5.5 -16.5°
Maximum altitude 05:25:06 61° 98° (E) 576 3.2 -15.9°
Drops below altitude 10° 05:28:50 10° 18° (NNE) 1,725 5.4 -15.3°
Sets 05:30:59 0° 15° (NNE) 2,616 6.3 -14.9°
